Flag for New Zealand Weather past 2 weeks in Invercargill, New Zealand

Now
66 °F

Mild.


Feels Like: 66 °F
Forecast: 54 / 68 °F
Wind: 3 mph from Southwest

Location: Christchurch Airport

Current Time: Dec 19, 2014 at 10:24:30 AM

Latest Report: Dec 19, 2014 at 9:30 AM


Visibility: N/A

Pressure: 29.92 "Hg

Humidity: 68%

Dew point: 55 °F

Location of InvercargillLocation

Historic Weather in Invercargill — Graph

°F

Invercargill temperature yesterday

Maximum temperature yesterday: 72 °F (at 4:30 PM)
Minimum temperature yesterday: 55 °F (at 10:00 PM)
Average temperature yesterday: 60 °F

Past Weeks' High & Low Weather Summary

 TemperatureHumidityPressure
High81 °F (Dec 7, 10:30 AM)100% (Dec 5, 3:00 AM)30.30 "Hg (Dec 5, 3:00 AM)
Low41 °F (Dec 14, 5:00 AM)34% (Dec 7, 10:30 AM)29.59 "Hg (Dec 10, 2:00 AM)
Average57 °F77%29.95 "Hg
* Reported Dec 4 9:00 AM — Dec 19 9:00 AM, Invercargill, Weather by CustomWeather, © 2014

Note: Actual official high and low records may vary slightly from our data, if they occured in-between our weather recording intervals... More about our weather records

Advertising

Invercargill weather history for previous 24 hours

 ConditionsComfort  
Time TempWeatherWind HumidityBarometerVisibility
9:00 AM
Dec 19
64 °FMild.3 mph73%29.92 "HgN/A
8:30 AM63 °FMild.5 mph77%29.89 "HgN/A
8:00 AM59 °FCool.3 mph88%29.89 "HgN/A
7:30 AM57 °FCool.5 mph88%29.89 "HgN/A
7:00 AM54 °FCool.6 mph94%29.89 "HgN/A
6:30 AM54 °FCool.5 mph94%29.89 "HgN/A
6:00 AM52 °FCool.5 mph94%29.89 "HgN/A
5:30 AM52 °FCool.5 mph94%29.89 "HgN/A
5:00 AM52 °FCool.5 mph94%29.86 "HgN/A
4:30 AM52 °FCool.5 mph100%29.86 "HgN/A
4:00 AM52 °FCool.3 mph100%29.86 "HgN/A
3:30 AM52 °FCool.3 mph100%29.86 "HgN/A
3:00 AM52 °FCool.2 mph94%29.86 "HgN/A
2:30 AM50 °FCool.No wind100%29.86 "HgN/A
2:00 AM52 °FCool.1 mph94%29.89 "HgN/A
1:30 AM52 °FCool.1 mph94%29.89 "HgN/A
1:00 AM54 °FCool.1 mph94%29.86 "HgN/A
12:30 AM54 °FCool.1 mph94%29.86 "HgN/A
12:00 AM55 °FCool.3 mph88%29.86 "HgN/A
11:30 PM
Dec 18
55 °FCool.6 mph88%29.86 "HgN/A
11:00 PM55 °FCool.6 mph88%29.86 "HgN/A
10:30 PM55 °FCool.6 mph88%29.86 "HgN/A
10:00 PM55 °FCool.7 mph82%29.86 "HgN/A
9:30 PM57 °FCool.7 mph77%29.86 "HgN/A
9:00 PM59 °FCool.10 mph72%29.83 "HgN/A
8:30 PM61 °FCool.13 mph68%29.83 "HgN/A
8:00 PM63 °FMild.15 mph64%29.80 "HgN/A
7:30 PM64 °FMild.17 mph64%29.80 "HgN/A
7:00 PM66 °FMild.18 mph64%29.80 "HgN/A
6:30 PM68 °FMild.18 mph64%29.77 "HgN/A
6:00 PM68 °FPassing clouds.16 mph69%29.77 "HgN/A
5:30 PM68 °FPassing clouds.16 mph73%29.77 "HgN/A
4:30 PM72 °FBroken clouds.14 mph69%29.74 "HgN/A
4:00 PM68 °FPartly sunny.13 mph73%29.74 "HgN/A
3:30 PM64 °FPartly sunny.10 mph83%29.74 "HgN/A
3:00 PM64 °FLight rain. Partly sunny.12 mph88%29.74 "HgN/A
2:30 PM63 °FSprinkles. Cloudy.13 mph88%29.74 "HgN/A
2:00 PM63 °FSprinkles. Partly sunny.13 mph94%29.74 "HgN/A
1:30 PM63 °FSprinkles. Broken clouds.13 mph94%29.74 "HgN/A
1:00 PM63 °FSprinkles. Partly sunny.13 mph88%29.74 "HgN/A
12:30 PM61 °FSprinkles. Overcast.13 mph94%29.74 "HgN/A
12:00 PM61 °FSprinkles. Low clouds.14 mph94%29.74 "HgN/A
11:30 AM61 °FSprinkles. Partly sunny.12 mph94%29.74 "HgN/A
11:00 AM63 °FSprinkles. Mostly cloudy.10 mph88%29.74 "HgN/A
10:30 AM61 °FOvercast.13 mph88%29.71 "HgN/A
10:00 AM61 °FPartly sunny.12 mph88%29.71 "HgN/A
Weather by CustomWeather, © 2014

See weather overviewHow to use our weather pages